User: anonymous   Login
Location: Pensacola
(30.4142°N, 87.2155°W)
Time: 13:41:02
(UTC-06:00)
Language:

Cosmos 2143 Rocket - Orbit

View from above orbital plane
View from above orbital plane
View from above satellite
View from above satellite

Ground track
Ground track

The orbit data is extracted from the following two-line orbital elements,

1 21305U 91033G   24058.44725840  .00000004  00000-0 -44184-4 0  9990
2 21305  82.5613 238.1991 0038868 104.2394 269.7475 12.54814758501783
Epoch (UTC): 27 February 2024 10:44:03
Eccentricity: 0.0038868
inclination: 82.5613°
perigee height: 1414 km
apogee height: 1475 km
right ascension of ascending node: 238.1991°
argument of perigee: 104.2394°
revolutions per day: 12.54814758
mean anomaly at epoch: 269.7475°
orbit number at epoch: 50178

The dashed part of the orbit path shows where the satellite is in the earth's shadow,  

DLR